When you browse on this site, cookies collect data to enhance your experience and personalize the content and advertising you see.
Visit our Privacy Policy to learn more. By continuing to use the site, you agree to this use of cookies and data.
  • In Schweiz
  • Länderverzeichnis
  • Für 7 Tage
  • Wassertemperatur
  • Wetterkarte
  • Widgets
  • user-avatar
    Anmelden

    Stündliche Wetter Darwin

    Heute, 4 Juni, Donnerstag

    Zeit Temperatur Niederschläge Wind Luftdruck Luftfeuchtigkeit
    00:00 +21°C° 0 mm 6 m/S 762 mmHg 33%
    01:00 +20°C° 0 mm 6 m/S 762 mmHg 38%
    02:00 +20°C° 0 mm 6 m/S 762 mmHg 43%
    03:00 +20°C° 0 mm 6 m/S 761 mmHg 47%
    04:00 +19°C° 0 mm 6 m/S 761 mmHg 52%
    05:00 +19°C° 0 mm 6 m/S 762 mmHg 57%
    06:00 +17°C° 0 mm 6 m/S 762 mmHg 61%
    07:00 +20°C° 0 mm 6 m/S 762 mmHg 60%
    08:00 +21°C° 0 mm 7 m/S 762 mmHg 59%
    09:00 +23°C° 0 mm 7 m/S 762 mmHg 55%
    10:00 +26°C° 0 mm 6 m/S 762 mmHg 48%
    11:00 +29°C° 0 mm 5 m/S 762 mmHg 42%
    12:00 +32°C° 0 mm 5 m/S 761 mmHg 35%
    13:00 +32°C° 0 mm 4 m/S 760 mmHg 33%
    14:00 +33°C° 0 mm 4 m/S 760 mmHg 32%
    15:00 +33°C° 0 mm 3 m/S 759 mmHg 30%
    16:00 +31°C° 0 mm 3 m/S 759 mmHg 33%
    17:00 +29°C° 0 mm 2 m/S 759 mmHg 35%
    18:00 +27°C° 0 mm 2 m/S 759 mmHg 38%
    19:00 +26°C° 0 mm 2 m/S 760 mmHg 37%
    20:00 +24°C° 0 mm 3 m/S 760 mmHg 37%
    21:00 +22°C° 0 mm 3 m/S 761 mmHg 36%
    22:00 +21°C° 0 mm 4 m/S 761 mmHg 35%
    23:00 +21°C° 0 mm 5 m/S 761 mmHg 35%

    Morgen, 5 Juni, Freitag

    Zeit Temperatur Niederschläge Wind Luftdruck Luftfeuchtigkeit
    00:00 +20°C° 0 mm 6 m/S 761 mmHg 34%
    01:00 +19°C° 0 mm 6 m/S 761 mmHg 38%
    02:00 +19°C° 0 mm 6 m/S 761 mmHg 43%
    03:00 +17°C° 0 mm 6 m/S 760 mmHg 47%
    04:00 +16°C° 0 mm 6 m/S 761 mmHg 52%
    05:00 +16°C° 0 mm 5 m/S 761 mmHg 56%
    06:00 +15°C° 0 mm 5 m/S 761 mmHg 61%
    07:00 +17°C° 0 mm 5 m/S 761 mmHg 58%
    08:00 +20°C° 0 mm 5 m/S 761 mmHg 54%
    09:00 +23°C° 0 mm 5 m/S 761 mmHg 50%
    10:00 +26°C° 0 mm 5 m/S 761 mmHg 45%
    11:00 +28°C° 0 mm 4 m/S 760 mmHg 40%
    12:00 +32°C° 0 mm 4 m/S 760 mmHg 35%
    13:00 +32°C° 0 mm 4 m/S 759 mmHg 33%
    14:00 +33°C° 0 mm 3 m/S 759 mmHg 31%
    15:00 +34°C° 0 mm 3 m/S 758 mmHg 30%
    16:00 +31°C° 0 mm 3 m/S 758 mmHg 40%
    17:00 +28°C° 0 mm 2 m/S 758 mmHg 51%
    18:00 +25°C° 0 mm 2 m/S 759 mmHg 62%
    19:00 +25°C° 0 mm 2 m/S 759 mmHg 66%
    20:00 +24°C° 0 mm 2 m/S 760 mmHg 69%
    21:00 +23°C° 0 mm 1 m/S 760 mmHg 73%
    22:00 +21°C° 0 mm 2 m/S 760 mmHg 69%
    23:00 +21°C° 0 mm 2 m/S 760 mmHg 65%

    übermorgen, 6 Juni, Samstag

    Zeit Temperatur Niederschläge Wind Luftdruck Luftfeuchtigkeit
    00:00 +20°C° 0 mm 3 m/S 760 mmHg 61%
    01:00 +20°C° 0 mm 3 m/S 759 mmHg 56%
    02:00 +19°C° 0 mm 4 m/S 759 mmHg 52%
    03:00 +19°C° 0 mm 5 m/S 759 mmHg 47%
    04:00 +19°C° 0 mm 5 m/S 759 mmHg 51%
    05:00 +17°C° 0 mm 5 m/S 759 mmHg 54%
    06:00 +18°C° 0 mm 4 m/S 759 mmHg 58%
    07:00 +20°C° 0 mm 4 m/S 759 mmHg 56%
    08:00 +22°C° 0 mm 4 m/S 760 mmHg 54%
    09:00 +25°C° 0 mm 4 m/S 760 mmHg 52%
    10:00 +27°C° 0 mm 3 m/S 760 mmHg 47%
    11:00 +30°C° 0 mm 3 m/S 759 mmHg 42%
    12:00 +32°C° 0 mm 2 m/S 758 mmHg 37%
    13:00 +34°C° 0 mm 2 m/S 758 mmHg 37%
    14:00 +34°C° 0 mm 2 m/S 757 mmHg 37%
    15:00 +34°C° 0 mm 2 m/S 757 mmHg 37%
    16:00 +31°C° 0 mm 2 m/S 757 mmHg 47%
    17:00 +29°C° 0 mm 2 m/S 757 mmHg 56%
    18:00 +26°C° 0 mm 2 m/S 757 mmHg 66%
    19:00 +26°C° 0 mm 2 m/S 758 mmHg 67%
    20:00 +25°C° 0 mm 3 m/S 758 mmHg 68%
    21:00 +25°C° 0 mm 3 m/S 758 mmHg 69%
    22:00 +24°C° 0 mm 3 m/S 758 mmHg 67%
    23:00 +24°C° 0 mm 3 m/S 758 mmHg 66%

    7 Juni, Sonntag

    Zeit Temperatur Niederschläge Wind Luftdruck Luftfeuchtigkeit
    00:00 +24°C° 0 mm 3 m/S 758 mmHg 64%
    01:00 +24°C° 0 mm 3 m/S 758 mmHg 64%
    02:00 +24°C° 0 mm 3 m/S 758 mmHg 63%
    03:00 +23°C° 0 mm 4 m/S 758 mmHg 63%
    04:00 +23°C° 0 mm 4 m/S 758 mmHg 65%
    05:00 +23°C° 0 mm 4 m/S 758 mmHg 68%
    06:00 +23°C° 0 mm 5 m/S 758 mmHg 71%
    07:00 +25°C° 0 mm 5 m/S 758 mmHg 68%
    08:00 +27°C° 0 mm 5 m/S 759 mmHg 64%
    09:00 +28°C° 0 mm 5 m/S 759 mmHg 61%
    10:00 +30°C° 0 mm 5 m/S 758 mmHg 55%
    11:00 +33°C° 0 mm 4 m/S 758 mmHg 49%
    12:00 +35°C° 0 mm 4 m/S 758 mmHg 43%
    13:00 +36°C° 0 mm 4 m/S 757 mmHg 42%
    14:00 +36°C° 0 mm 4 m/S 756 mmHg 40%
    15:00 +37°C° 0 mm 4 m/S 755 mmHg 39%
    16:00 +35°C° 0 mm 4 m/S 756 mmHg 46%
    17:00 +33°C° 0 mm 4 m/S 756 mmHg 53%
    18:00 +30°C° 0 mm 3 m/S 756 mmHg 60%
    19:00 +29°C° 0 mm 3 m/S 757 mmHg 63%
    20:00 +28°C° 0 mm 2 m/S 757 mmHg 67%
    21:00 +27°C° 0 mm 2 m/S 758 mmHg 71%
    22:00 +27°C° 0.1 mm 2 m/S 758 mmHg 73%
    23:00 +26°C° 0.1 mm 3 m/S 758 mmHg 74%

    8 Juni, Montag

    Zeit Temperatur Niederschläge Wind Luftdruck Luftfeuchtigkeit
    00:00 +26°C° 0.1 mm 3 m/S 758 mmHg 76%
    01:00 +26°C° 0 mm 3 m/S 758 mmHg 74%
    02:00 +25°C° 0 mm 3 m/S 758 mmHg 72%
    03:00 +25°C° 0 mm 4 m/S 757 mmHg 69%
    04:00 +25°C° 0 mm 4 m/S 758 mmHg 72%
    05:00 +23°C° 0 mm 4 m/S 758 mmHg 74%
    06:00 +22°C° 0 mm 4 m/S 758 mmHg 76%
    07:00 +25°C° 0 mm 5 m/S 758 mmHg 69%
    08:00 +26°C° 0 mm 5 m/S 759 mmHg 61%
    09:00 +28°C° 0 mm 6 m/S 759 mmHg 54%
    10:00 +30°C° 0 mm 5 m/S 759 mmHg 49%
    11:00 +33°C° 0 mm 4 m/S 758 mmHg 44%
    12:00 +34°C° 0 mm 4 m/S 758 mmHg 39%
    13:00 +35°C° 0 mm 3 m/S 757 mmHg 38%
    14:00 +36°C° 0 mm 3 m/S 757 mmHg 37%
    15:00 +36°C° 0 mm 2 m/S 756 mmHg 36%
    16:00 +34°C° 0 mm 2 m/S 756 mmHg 43%
    17:00 +31°C° 0 mm 2 m/S 757 mmHg 50%
    18:00 +29°C° 0 mm 2 m/S 757 mmHg 57%
    19:00 +28°C° 0 mm 2 m/S 758 mmHg 61%
    20:00 +28°C° 0 mm 1 m/S 758 mmHg 64%
    21:00 +27°C° 0 mm 1 m/S 759 mmHg 67%
    22:00 +27°C° 0 mm 2 m/S 759 mmHg 64%
    23:00 +27°C° 0 mm 2 m/S 759 mmHg 61%

    9 Juni, Dienstag

    Zeit Temperatur Niederschläge Wind Luftdruck Luftfeuchtigkeit
    00:00 +28°C° 0 mm 2 m/S 759 mmHg 58%
    01:00 +27°C° 0 mm 4 m/S 758 mmHg 60%
    02:00 +26°C° 0 mm 5 m/S 758 mmHg 62%
    03:00 +26°C° 0 mm 6 m/S 758 mmHg 63%
    04:00 +24°C° 0 mm 6 m/S 758 mmHg 67%
    05:00 +23°C° 0 mm 6 m/S 759 mmHg 70%
    06:00 +23°C° 0 mm 6 m/S 759 mmHg 74%
    07:00 +24°C° 0 mm 6 m/S 760 mmHg 69%
    08:00 +26°C° 0 mm 6 m/S 760 mmHg 64%
    09:00 +27°C° 0 mm 6 m/S 760 mmHg 59%
    10:00 +29°C° 0 mm 5 m/S 760 mmHg 52%
    11:00 +32°C° 0 mm 4 m/S 760 mmHg 45%
    12:00 +34°C° 0 mm 4 m/S 759 mmHg 38%
    13:00 +35°C° 0 mm 4 m/S 759 mmHg 36%
    14:00 +36°C° 0 mm 4 m/S 758 mmHg 35%
    15:00 +36°C° 0 mm 4 m/S 758 mmHg 34%
    16:00 +34°C° 0 mm 4 m/S 758 mmHg 41%
    17:00 +31°C° 0 mm 3 m/S 758 mmHg 48%
    18:00 +29°C° 0 mm 3 m/S 758 mmHg 55%
    19:00 +28°C° 0 mm 2 m/S 759 mmHg 58%
    20:00 +27°C° 0 mm 2 m/S 759 mmHg 62%
    21:00 +26°C° 0 mm 2 m/S 760 mmHg 65%
    22:00 +26°C° 0 mm 2 m/S 760 mmHg 65%
    23:00 +26°C° 0 mm 2 m/S 760 mmHg 65%
    Mehr zeigen